Location: Newark
(49.8348°N, 24.0280°E)
Time: 04:18:52
(UTC+00:00)

Transit 2A Rocket - All Passes

Search period start: 19 January 2020 00:00
Search period end: 29 January 2020 00:00
Orbit: 593 x 910 km, 66.7° (Epoch: 18 January)

Date Brightness Start Highest point End Pass type
(mag) Time Alt. Az. Time Alt. Az. Time Alt. Az.
19 Jan - 05:02:12 10° SSW 05:06:20 46° ESE 05:10:29 10° NE visible
19 Jan - 06:45:15 10° W 06:49:01 29° NW 06:52:53 10° NNE daylight
19 Jan - 08:31:53 10° NNW 08:33:05 11° NNW 08:34:18 10° N daylight
19 Jan - 10:16:55 10° N 10:17:49 10° NNE 10:18:44 10° NNE daylight
19 Jan - 11:58:08 10° NNW 12:02:00 25° NE 12:06:06 10° E daylight
19 Jan - 13:40:15 10° NW 13:44:58 72° WSW 13:50:07 10° SSE daylight
19 Jan - 15:25:02 10° W 15:26:49 12° WSW 15:28:39 10° SW visible
20 Jan - 04:20:21 10° S 04:23:58 27° ESE 04:27:37 10° ENE visible
20 Jan - 06:02:10 10° WSW 06:06:18 44° NW 06:10:31 10° NNE daylight
20 Jan - 07:47:51 10° NW 07:50:01 13° NNW 07:52:12 10° N daylight
20 Jan - 11:15:49 10° NNW 11:19:07 19° NNE 11:22:34 10° ENE daylight
20 Jan - 12:57:42 10° NNW 13:02:25 72° NE 13:07:34 10° SE daylight
20 Jan - 14:41:04 10° WNW 14:44:35 20° WSW 14:48:17 10° SSW daylight
21 Jan - 03:39:09 10° SE 03:41:42 16° ESE 03:44:17 10° ENE visible
21 Jan - 05:19:22 10° SW 05:23:39 72° NW 05:28:03 10° NNE visible
21 Jan - 07:04:07 10° WNW 07:07:00 17° NNW 07:09:58 10° NNE daylight
21 Jan - 10:33:34 10° N 10:36:09 15° NNE 10:38:49 10° ENE daylight
21 Jan - 12:15:15 10° NNW 12:19:47 47° NE 12:24:42 10° ESE daylight
21 Jan - 13:57:58 10° NW 14:02:15 32° WSW 14:06:51 10° S daylight
22 Jan - 04:36:52 10° SSW 04:41:08 67° ESE 04:45:28 10° NE visible
22 Jan - 06:20:37 10° W 06:24:06 23° NW 06:27:41 10° NNE daylight
22 Jan - 08:08:09 10° NNW 08:08:21 10° N 08:08:33 10° N daylight
22 Jan - 09:51:22 10° N 09:53:05 12° NNE 09:54:51 10° NE daylight
22 Jan - 11:32:52 10° NNW 11:37:04 32° NE 11:41:34 10° ESE daylight
22 Jan - 13:15:11 10° NW 13:19:49 53° WSW 13:24:54 10° SSE daylight
23 Jan - 03:54:44 10° S 03:58:43 38° ESE 04:02:45 10° NE visible
23 Jan - 05:37:22 10° WSW 05:41:17 33° NW 05:45:19 10° NNE daylight
23 Jan - 07:23:37 10° NW 07:25:15 12° NNW 07:26:52 10° N daylight
23 Jan - 09:09:28 10° N 09:09:58 10° N 09:10:28 10° NNE daylight
23 Jan - 10:50:31 10° NNW 10:54:14 23° NE 10:58:12 10° E daylight
23 Jan - 12:32:33 10° NW 12:37:20 85° SW 12:42:33 10° SSE daylight
23 Jan - 14:16:38 10° WNW 14:19:18 15° WSW 14:22:04 10° SW daylight
24 Jan - 03:13:03 10° SSE 03:16:24 22° ESE 03:19:46 10° ENE visible
24 Jan - 04:54:23 10° SW 04:58:35 52° NW 05:02:54 10° NNE visible
24 Jan - 06:39:44 10° WNW 06:42:12 15° NNW 06:44:42 10° N daylight
24 Jan - 10:08:14 10° NNW 10:11:20 17° NNE 10:14:35 10° ENE daylight
24 Jan - 11:50:03 10° NNW 11:54:46 62° NE 11:59:53 10° SE daylight
24 Jan - 13:33:08 10° WNW 13:37:02 24° WSW 13:41:10 10° SSW daylight
25 Jan - 02:32:16 10° SE 02:34:11 13° ESE 02:36:05 10° E visible
25 Jan - 04:11:41 10° SW 04:15:59 86° WNW 04:20:24 10° NE visible
25 Jan - 05:56:05 10° WNW 05:59:13 19° NNW 06:02:26 10° NNE daylight
25 Jan - 09:25:58 10° N 09:28:20 14° NNE 09:30:46 10° NE daylight
25 Jan - 11:07:37 10° NNW 11:12:06 41° NE 11:16:56 10° ESE daylight
25 Jan - 12:50:11 10° NW 12:54:40 38° WSW 12:59:31 10° S daylight
26 Jan - 03:29:19 10° SSW 03:33:31 55° ESE 03:37:47 10° NE visible
26 Jan - 05:12:41 10° W 05:16:20 26° NW 05:20:06 10° NNE visible
26 Jan - 06:59:31 10° NNW 07:00:30 11° NNW 07:01:30 10° N daylight
26 Jan - 08:43:47 10° N 08:45:15 11° NNE 08:46:45 10° NNE daylight
26 Jan - 10:25:15 10° NNW 10:29:21 28° NE 10:33:43 10° E daylight
26 Jan - 12:07:28 10° NW 12:12:13 63° WSW 12:17:25 10° SSE daylight
26 Jan - 13:53:36 10° W 13:53:59 10° WSW 13:54:21 10° WSW daylight
27 Jan - 02:47:19 10° S 02:51:07 31° ESE 02:54:59 10° NE visible
27 Jan - 04:29:31 10° WSW 04:33:34 39° NW 04:37:44 10° NNE visible
27 Jan - 06:15:26 10° NW 06:17:24 13° NNW 06:19:24 10° N daylight
27 Jan - 09:42:55 10° NNW 09:46:29 21° NNE 09:50:16 10° E daylight
27 Jan - 11:24:53 10° NW 11:29:42 83° NE 11:34:57 10° SE daylight
27 Jan - 13:08:31 10° WNW 13:11:46 18° WSW 13:15:11 10° SSW daylight
28 Jan - 02:05:52 10° SSE 02:08:50 18° ESE 02:11:51 10° ENE visible
28 Jan - 03:46:38 10° SW 03:50:53 62° NW 03:55:17 10° NNE visible
28 Jan - 05:31:39 10° WNW 05:34:23 16° NNW 05:37:11 10° NNE daylight
28 Jan - 09:00:38 10° NNW 09:03:32 16° NNE 09:06:35 10° ENE daylight
28 Jan - 10:42:24 10° NNW 10:47:05 54° NE 10:52:11 10° SE daylight
28 Jan - 12:25:17 10° NW 12:29:28 28° WSW 12:33:57 10° S daylight
